[[{"header":{"parameterUnit":"m.s-1","parameterCategory":1,"la1":30.2991,"la2":30.254,"lo1":-89.0895,"lo2":-89.0444,"dy":0.0017,"dx":0.0017,"nx":28,"ny":28,"refTime":"2023-10-05T03:00:00:Z","depth":0,"parameterNumber":2,"parameterNumberName":"U-component_of_WINDS"},"data":[0,0,0,0,0,0,0,0,0,0,0,0,0,0,0,0,0,0,0,0,0,0,0,0,0,0,0,0,0,0,0,0,0,0,0,0,0,0,0,0,0,0,0,0,0,0,0,0,0,0,0,0,0,0,0,0,0,0,-3.4347,-3.4347,0,-3.4334,-3.4334,-3.4333,-3.4224,-3.4222,-3.4219,-3.4217,-3.4204,-3.4206,-3.4208,0,0,0,0,0,0,0,0,0,0,0,0,0,-3.428,-3.4281,-3.4347,-3.4347,-3.4347,-3.4334,-3.4333,-3.4333,-3.4225,-3.4222,-3.4218,-3.4215,-3.4203,-3.4206,-3.4208,0,0,0,0,0,0,0,0,0,0,0,0,0,-3.4292,-3.4282,-3.4347,-3.4291,-3.4286,-3.4334,-3.4333,-3.4333,-3.4226,-3.4222,-3.4218,-3.4214,-3.4202,-3.4205,-3.4208,-3.4309,0,0,-3.4218,-3.422,0,0,0,0,0,0,0,0,-3.4291,-3.4295,-3.43,-3.4295,-3.4289,-3.4277,-3.4305,-3.4325,-3.4227,-3.4249,-3.4216,-3.4212,-3.4231,-3.4232,-3.4238,-3.4309,-3.4308,-3.4219,-3.4221,-3.4222,-3.4223,0,0,0,0,0,0,0,-3.4291,-3.4294,-3.4342,-3.43,-3.4294,-3.4267,-3.4264,-3.4308,-3.4263,-3.4246,-3.4238,-3.4238,-3.4228,-3.4235,-3.4237,-3.4308,-3.4219,-3.4221,-3.4223,-3.4225,-3.4459,-3.4463,0,0,0,0,0,0,-3.4298,-3.4295,-3.4342,-3.4341,-3.428,-3.4271,-3.4268,-3.4285,-3.4262,-3.4255,-3.4242,-3.4233,-3.4232,-3.4233,-3.4236,-3.4351,-3.4222,-3.4225,-3.4227,-3.4455,-3.446,-3.4465,0,0,0,0,0,0,-3.4296,-3.4303,-3.4343,-3.4316,-3.4319,-3.4277,-3.4296,-3.4287,-3.4294,-3.4258,-3.425,-3.4258,-3.4229,-3.4232,-3.4292,-3.4349,-3.4227,-3.4229,-3.445,-3.4456,-3.4462,-3.4583,0,0,0,0,0,0,-3.4295,-3.4303,-3.4341,-3.4317,-3.4321,-3.4398,-3.43,-3.4289,-3.43,-3.4289,-3.4271,-3.4264,-3.4226,-3.4287,-3.4295,-3.4352,-3.4232,-3.4444,-3.4453,-3.446,-3.4574,-3.4593,-3.461,0,0,0,0,0,-3.4293,-3.4376,-3.4343,-3.435,-3.4367,-3.4402,-3.4404,-3.4357,-3.4305,-3.4342,-3.432,-3.4265,-3.4342,-3.4294,-3.4302,-3.4361,-3.4441,-3.445,-3.446,-3.4566,-3.4589,-3.4609,0,0,0,0,0,0,-3.4407,-3.4372,-3.4335,-3.4413,-3.4411,-3.4384,-3.4429,-3.4384,-3.4397,-3.4386,-3.4328,-3.4325,-3.4394,-3.4383,-3.433,-3.4456,-3.4382,-3.4394,-3.446,-3.4482,-3.45,-3.45,-3.4235,0,0,0,0,0,-3.4442,-3.4473,-3.444,-3.4512,-3.4513,-3.4472,-3.4485,-3.445,-3.4446,-3.4444,-3.4426,-3.4424,-3.4448,-3.4465,-3.4485,-3.4573,-3.4567,-3.4617,-3.4635,-3.4649,-3.466,-3.4704,-3.4726,-3.4496,-3.4496,-3.4496,0,0,-3.4513,-3.4497,-3.4521,-3.4535,-3.4529,-3.4563,-3.4472,-3.4511,-3.4535,-3.445,-3.4505,-3.4492,-3.4486,-3.4561,-3.4592,-3.4554,-3.4722,-3.4662,-3.4674,-3.4676,-3.4716,-3.4738,-3.4757,-3.4503,-3.4502,-3.4501,0,0,-3.4659,-3.4651,-3.4709,-3.4705,-3.4698,-3.467,-3.4684,-3.4664,-3.4651,-3.4705,-3.4642,-3.467,-3.4713,-3.4711,-3.4716,-3.4862,-3.4812,-3.487,-3.4962,-3.5007,-3.5025,-3.504,-3.5091,-3.511,-3.4881,-3.4881,-3.4881,0,-3.4748,-3.4796,-3.4745,-3.4788,-3.4796,-3.4721,-3.4779,-3.4778,-3.4778,-3.4785,-3.4743,-3.4794,-3.4785,-3.4857,-3.4892,-3.4899,-3.4913,-3.4871,-3.5026,-3.5041,-3.5055,-3.5103,-3.5123,-3.4888,-3.4887,-3.4887,-3.4886,0,-3.4905,-3.4939,-3.4987,-3.4988,-3.5002,-3.5053,-3.501,-3.5029,-3.4993,-3.497,-3.5026,-3.5013,-3.5028,-3.5043,-3.5008,-3.511,-3.5086,-3.5036,-3.496,-3.5085,-3.5129,-3.5147,-3.4898,-3.4896,-3.4894,-3.4892,0,0,-3.5122,-3.5094,-3.5113,-3.5112,-3.5098,-3.5124,-3.5171,-3.5186,-3.5203,-3.5207,-3.5244,-3.5282,-3.5235,-3.5241,-3.5205,-3.5245,-3.536,-3.5189,-3.5188,-3.522,-3.547,-3.5507,-3.5529,-3.5327,-3.5331,-3.5333,-3.547,0,-3.5261,-3.534,-3.5295,-3.538,-3.5411,-3.534,-3.5381,-3.5377,-3.5357,-3.538,-3.5358,-3.5385,-3.5322,-3.5325,-3.536,-3.5338,-3.5409,-3.5328,-3.5361,-3.5363,-3.5363,-3.5552,-3.5591,-3.572,-3.5487,-3.549,-3.5492,0,-3.5434,-3.5443,-3.5531,-3.5511,-3.5522,-3.556,-3.5569,-3.5593,-3.5587,-3.5569,-3.5576,-3.5531,-3.5576,-3.5502,-3.5563,-3.5509,-3.5521,-3.5512,-3.5516,-3.5516,-3.5434,-3.5555,-3.5761,-3.578,-3.5519,-3.5516,-3.5515,0,-3.5581,-3.5616,-3.5673,-3.5674,-3.5653,-3.5681,-3.5673,-3.5664,-3.5675,-3.5684,-3.5691,-3.5706,-3.5713,-3.5726,-3.5686,-3.5636,-3.5752,-3.5675,-3.5738,-3.5739,-3.5764,-3.5763,-3.5973,-3.5775,-3.5775,-3.5774,-3.5774,0,-3.574,-3.5797,-3.5738,-3.5773,-3.5834,-3.5783,-3.5845,-3.5829,-3.5822,-3.5852,-3.5793,-3.5823,-3.5769,-3.5794,-3.5763,-3.5818,-3.5822,-3.5809,-3.58,-3.5813,-3.5815,-3.5819,-3.5808,-3.5779,-3.5778,-3.5777,-3.5777,0,-3.5915,-3.5878,-3.5935,-3.591,-3.5905,-3.5951,-3.5929,-3.596,-3.5936,-3.5975,-3.5982,-3.5944,-3.597,-3.5932,-3.5954,-3.5934,-3.6009,-3.5987,-3.601,-3.6003,-3.6068,-3.6062,-3.6286,-3.6313,-3.61,-3.6102,-3.6104,0,-3.6018,-3.6059,-3.6038,-3.6054,-3.605,-3.6076,-3.6087,-3.6039,-3.6053,-3.605,-3.6082,-3.6103,-3.6117,-3.6162,-3.6137,-3.6153,-3.613,-3.6208,-3.6132,-3.6144,-3.613,-3.6127,-3.613,-3.6223,-3.6225,-3.6228,-3.6229,0,-3.6204,-3.6184,-3.6202,-3.6214,-3.6229,-3.6236,-3.6239,-3.6256,-3.6205,-3.6224,-3.6249,-3.6261,-3.6283,-3.6304,-3.6314,-3.6307,-3.626,-3.6254,-3.6269,-3.6282,-3.6293,-3.6287,-3.6051,-3.6248,-3.6246,-3.6245,-3.6244,-3.6243,-3.6345,-3.6378,-3.6368,-3.639,-3.6387,-3.6391,-3.6419,-3.6398,-3.6418,-3.6432,-3.6402,-3.6435,-3.6428,-3.6437,-3.6435,-3.646,-3.6426,-3.6448,-3.6454,-3.646,-3.6469,-3.6291,-3.6462,-3.6461,-3.6461,-3.646,-3.646,0,-3.6527,-3.6517,-3.6538,-3.6543,-3.6561,-3.6515,-3.6516,-3.6533,-3.6563,-3.656,-3.6575,-3.6604,-3.6625,-3.6601,-3.6618,-3.6642,-3.6621,-3.6648,-3.6645,-3.6644,-3.6499,-3.6484,-3.6665,-3.6665,-3.6665,-3.6665,-3.6665,-3.6664,-3.6624,-3.6676,-3.6655,-3.6706,-3.6696,-3.6727,-3.6731,-3.6734,-3.6732,-3.6767,-3.6783,-3.6768,-3.6757,-3.6772,-3.6789,-3.6781,-3.6789,-3.6824,-3.6809,-3.6674,-3.6654,-3.6635,-3.662,-3.6826,-3.6827,-3.6951,-3.6952,-3.6953]},{"header":{"parameterUnit":"m.s-1","parameterCategory":1,"la1":30.2991,"la2":30.254,"lo1":-89.0895,"lo2":-89.0444,"dy":0.0017,"dx":0.0017,"nx":28,"ny":28,"refTime":"2023-10-05T03:00:00:Z","depth":0,"parameterNumber":3,"parameterNumberName":"V-component_of_WINDS"},"data":[0,0,0,0,0,0,0,0,0,0,0,0,0,0,0,0,0,0,0,0,0,0,0,0,0,0,0,0,0,0,0,0,0,0,0,0,0,0,0,0,0,0,0,0,0,0,0,0,0,0,0,0,0,0,0,0,0,0,2.5779,2.5779,0,2.5807,2.5808,2.5808,2.5788,2.5787,2.5786,2.5786,2.5812,2.5813,2.5814,0,0,0,0,0,0,0,0,0,0,0,0,0,2.5706,2.5707,2.5779,2.5779,2.578,2.5807,2.5808,2.5808,2.5788,2.5787,2.5786,2.5785,2.5811,2.5813,2.5815,0,0,0,0,0,0,0,0,0,0,0,0,0,2.5736,2.5708,2.5779,2.5773,2.5773,2.5807,2.5808,2.5808,2.5788,2.5787,2.5786,2.5785,2.581,2.5813,2.5815,2.5855,0,0,2.5822,2.5823,0,0,0,0,0,0,0,0,2.5734,2.5739,2.5774,2.5774,2.5773,2.5793,2.5791,2.5824,2.5789,2.5783,2.5785,2.5784,2.5806,2.5809,2.5817,2.5856,2.5858,2.5822,2.5823,2.5824,2.5825,0,0,0,0,0,0,0,2.5732,2.5737,2.579,2.5774,2.5774,2.5769,2.5771,2.5797,2.5801,2.5783,2.5782,2.5785,2.5806,2.5815,2.5817,2.5858,2.5822,2.5824,2.5825,2.5826,2.5932,2.5934,0,0,0,0,0,0,2.5731,2.5736,2.5789,2.5791,2.575,2.5771,2.5774,2.5788,2.5801,2.5802,2.5786,2.5784,2.5811,2.5815,2.5818,2.5866,2.5824,2.5826,2.5828,2.5931,2.5933,2.5934,0,0,0,0,0,0,2.5729,2.5736,2.5788,2.5763,2.5769,2.5774,2.5789,2.5789,2.5798,2.5804,2.5804,2.5795,2.5811,2.5815,2.5846,2.5867,2.5827,2.583,2.5929,2.5932,2.5934,2.5962,0,0,0,0,0,0,2.5727,2.5736,2.5751,2.5764,2.5771,2.5816,2.5791,2.5791,2.5802,2.58,2.5812,2.5812,2.581,2.5843,2.5849,2.5869,2.5831,2.5927,2.593,2.5933,2.5959,2.5965,2.597,0,0,0,0,0,2.5725,2.5757,2.5752,2.5759,2.5791,2.5818,2.5822,2.5819,2.5804,2.582,2.5823,2.5812,2.5864,2.5847,2.5853,2.5874,2.5926,2.5929,2.5933,2.5957,2.5964,2.597,0,0,0,0,0,0,2.5746,2.5759,2.5753,2.5791,2.5804,2.5814,2.5834,2.5826,2.5843,2.5839,2.5835,2.5838,2.587,2.5876,2.5856,2.5914,2.5893,2.5897,2.5909,2.5916,2.5921,2.5918,2.5833,0,0,0,0,0,2.5755,2.5777,2.5787,2.5819,2.5826,2.5829,2.5841,2.5838,2.585,2.5855,2.5861,2.5873,2.5892,2.5904,2.5922,2.5961,2.5963,2.5979,2.5984,2.5988,2.5992,2.6012,2.6019,2.5945,2.5945,2.5945,0,0,2.5774,2.5784,2.5797,2.5824,2.5833,2.5855,2.5833,2.5857,2.5873,2.5858,2.5888,2.5894,2.5907,2.5942,2.5958,2.5947,2.6013,2.5992,2.5996,2.5997,2.6016,2.6023,2.603,2.5947,2.5947,2.5947,0,0,2.5819,2.5829,2.5857,2.5868,2.5883,2.5885,2.5892,2.5904,2.5907,2.5938,2.5928,2.5946,2.5979,2.5989,2.5998,2.6049,2.6039,2.6055,2.6082,2.6102,2.6108,2.6113,2.613,2.6137,2.6059,2.6059,2.6059,0,2.584,2.5873,2.5872,2.5897,2.5909,2.5898,2.5926,2.5936,2.5956,2.5964,2.5952,2.5994,2.6002,2.6039,2.6052,2.606,2.6067,2.6053,2.6107,2.6112,2.6117,2.6134,2.614,2.6061,2.6061,2.606,2.606,0,2.5898,2.5922,2.5942,2.5963,2.5977,2.6004,2.6006,2.6021,2.6017,2.602,2.6052,2.6061,2.6081,2.609,2.6086,2.6127,2.612,2.6108,2.6086,2.6126,2.6141,2.6148,2.6063,2.6063,2.6062,2.6062,0,0,2.5955,2.5976,2.5984,2.5993,2.601,2.6028,2.6054,2.6075,2.6087,2.6102,2.6123,2.6152,2.6141,2.6152,2.6149,2.6167,2.6206,2.6153,2.6153,2.6162,2.6251,2.6259,2.6266,2.6201,2.6202,2.6203,2.625,0,2.6,2.6047,2.6047,2.6089,2.6111,2.6102,2.6125,2.6137,2.6142,2.616,2.6164,2.6185,2.617,2.6176,2.6194,2.6198,2.6224,2.6195,2.6219,2.622,2.6215,2.6275,2.6283,2.6326,2.6256,2.6257,2.6258,0,2.6059,2.6077,2.6122,2.6136,2.6145,2.6166,2.6185,2.6203,2.6217,2.6219,2.6232,2.6227,2.6253,2.6232,2.6267,2.6247,2.6258,2.6262,2.6263,2.6264,2.624,2.6276,2.634,2.6346,2.6267,2.6266,2.6266,0,2.6095,2.613,2.6162,2.617,2.6188,2.6203,2.6211,2.6224,2.6237,2.6253,2.6261,2.6281,2.6291,2.6305,2.6306,2.6291,2.6341,2.632,2.6342,2.6342,2.6352,2.6351,2.6418,2.6361,2.6361,2.6361,2.6361,0,2.6144,2.6172,2.6178,2.6197,2.6228,2.6229,2.6259,2.6265,2.6277,2.6297,2.6291,2.6309,2.6309,2.6328,2.6329,2.6358,2.6362,2.6364,2.6363,2.6364,2.6363,2.6369,2.6365,2.6363,2.6362,2.6362,2.6362,0,2.6189,2.6194,2.6228,2.6243,2.6248,2.6269,2.6282,2.63,2.6304,2.633,2.6335,2.6342,2.6364,2.6366,2.6391,2.6392,2.6426,2.6423,2.6422,2.6421,2.6442,2.644,2.6514,2.6523,2.6462,2.6462,2.6463,0,2.6219,2.624,2.6259,2.6272,2.6281,2.6303,2.6316,2.6318,2.6332,2.6351,2.6366,2.6388,2.6405,2.644,2.6447,2.6466,2.6463,2.6487,2.6465,2.6465,2.6462,2.646,2.6461,2.6491,2.6492,2.6492,2.6493,0,2.6273,2.6275,2.6295,2.6316,2.6333,2.6349,2.6365,2.6376,2.6379,2.6395,2.6419,2.6432,2.6459,2.648,2.6499,2.6507,2.65,2.65,2.6506,2.6505,2.6503,2.6504,2.6432,2.6498,2.6497,2.6497,2.6496,2.6496,2.631,2.6329,2.6345,2.6367,2.638,2.6395,2.6413,2.642,2.644,2.6462,2.6462,2.6487,2.6501,2.6527,2.6536,2.6555,2.6547,2.6556,2.6557,2.6559,2.6561,2.6502,2.6559,2.6559,2.6559,2.6558,2.6558,0,2.6363,2.6373,2.6394,2.6417,2.6435,2.6429,2.6446,2.6461,2.6484,2.6498,2.6516,2.6542,2.6563,2.6572,2.6592,2.6606,2.6603,2.6611,2.6609,2.6611,2.6568,2.656,2.6613,2.6613,2.6613,2.6613,2.6613,2.6613,2.6392,2.6423,2.6427,2.6464,2.6474,2.65,2.651,2.6524,2.6535,2.6566,2.6584,2.659,2.6602,2.6623,2.6642,2.6644,2.6651,2.666,2.6661,2.662,2.6614,2.6609,2.6601,2.6662,2.6662,2.6702,2.6702,2.6703]}]]